Location: New Frontier Mobile Home Park
(32.8448°N, 116.9675°W)
Time: 21:16:37
(UTC+00:00)

SEDSat Delta rocket - Pass Details

Date: 14 July 2020
Orbit: 533 x 1001 km, 31.4° (Epoch: 13 August)

Event Time Altitude Azimuth Distance (km) Brightness Sun altitude
Rises 05:06:26 0° 258° (WSW) 3,182 7.1 -22.5°
Reaches altitude 10° 05:08:45 10° 256° (WSW) 2,330 6.3 -22.8°
Maximum altitude 05:14:20 74° 172° (S) 893 3.6 -23.6°
Enters shadow 05:16:01 49° 102° (ESE) 1,123 4.0 -23.8°
